Location: Banff
(51.1667°N, 115.5667°W)
Time: 03:56:16
(UTC+00:00)

S-56A Canister/Altair - Pass Details

Date: 14 May 2021
Orbit: 632 x 2500 km, 38.9° (Epoch: 16 June)

Event Time Altitude Azimuth Distance (km) Brightness Sun altitude
Rises 04:54:23 0° 277° (W) 6,089 12.9 -11.4°
Reaches altitude 10° 04:59:28 10° 267° (W) 4,916 12.1 -11.9°
Maximum altitude 05:09:27 26° 220° (SW) 3,301 10.6 -12.9°
Enters shadow 05:16:46 12° 172° (S) 3,706 10.5 -13.5°
